JH5HTX-13 Weather Reports


Display with metric or nautical units.
time (UTC)temp
F
wind
direction
speed
MPH
gust
MPH
rain 1hr
in
rain 24hr
in
rain mn
in
humidity
%
barometer
mb
20260504045730 64 211 0.0 0.0 0.00 0.12 0.12 62 1009.4
20260504044230 64 180 0.0 0.0 0.00 0.12 0.12 61 1009.1
20260504042730 65 225 0.0 0.0 0.00 0.12 0.12 61 1009.1
20260504041230 66 211 0.0 0.0 0.00 0.12 0.12 61 1009.0
20260504035730 67 199 0.0 0.0 0.00 0.12 0.12 59 1008.8
20260504034230 66 225 0.0 0.0 0.00 0.12 0.12 60 1008.8
20260504032729 65 192 0.0 0.0 0.00 0.12 0.12 61 1008.5
20260504031229 65 183 0.0 0.0 0.00 0.12 0.12 61 1008.6
20260504025729 65 249 0.0 0.0 0.00 0.12 0.12 62 1008.5
20260504024229 66 225 0.0 0.0 0.00 0.12 0.12 62 1008.3
20260504022729 66 172 0.0 0.0 0.00 0.12 0.12 61 1008.0
20260504021229 66 264 0.0 0.0 0.00 0.12 0.12 60 1008.1
20260504015729 66 158 0.0 0.0 0.00 0.12 0.12 61 1007.6
20260504014229 65 180 0.0 0.0 0.00 0.12 0.12 65 1007.6
20260504012729 64 248 0.0 0.0 0.00 0.12 0.12 69 1007.9
20260504011229 64 225 0.0 0.0 0.00 0.12 0.12 69 1007.7
20260504005728 65 287 0.0 0.0 0.00 0.12 0.12 67 1007.8
20260504004228 64 218 0.0 0.0 0.00 0.12 0.12 68 1007.7
20260504002728 64 225 0.0 0.0 0.00 0.12 0.12 67 1007.5
20260504001228 64 190 0.0 0.0 0.00 0.12 0.12 68 1007.5
20260503235728 64 230 0.0 0.0 0.00 0.12 0.12 67 1007.5
20260503234228 64 248 0.0 0.0 0.00 0.12 0.12 68 1007.2
20260503232728 64 227 0.0 0.0 0.00 0.12 0.12 68 1007.1
20260503231228 64 253 0.0 0.0 0.00 0.12 0.12 69 1006.9
20260503225728 64 189 0.0 0.0 0.00 0.12 0.12 70 1006.5
20260503224228 64 202 0.0 0.0 0.00 0.12 0.12 70 1006.4
20260503222727 63 292 0.0 0.0 0.00 0.12 0.12 73 1006.5
20260503221227 63 205 0.0 0.0 0.00 0.12 0.12 74 1005.9
20260503215727 63 270 0.0 0.0 0.00 0.12 0.12 74 1005.8
20260503214227 63 270 0.0 0.0 0.00 0.12 0.12 75 1005.9
20260503212727 63 148 0.0 0.0 0.00 0.12 0.12 76 1005.6
20260503211227 62 225 0.0 0.0 0.00 0.12 0.12 77 1005.5
20260503205727 62 248 0.0 0.0 0.00 0.12 0.12 76 1004.6
20260503204227 62 202 0.0 0.0 0.00 0.12 0.12 76 1004.5
20260503202726 62 291 0.0 0.0 0.00 0.12 0.12 78 1004.4
20260503201226 62 202 0.0 0.0 0.00 0.12 0.12 78 1004.3
20260503195726 63 248 0.0 0.0 0.00 0.12 0.12 76 1004.1
20260503194226 63 225 0.0 0.0 0.00 0.12 0.12 75 1004.2
20260503192726 62 248 0.0 0.0 0.00 0.12 0.12 76 1003.9
20260503191226 62 270 0.0 0.0 0.00 0.12 0.12 78 1003.8
20260503185726 62 270 0.0 0.0 0.00 0.12 0.12 81 1003.6
20260503184226 62 180 0.0 0.0 0.00 0.12 0.12 83 1003.5
20260503182726 62 315 0.0 0.0 0.00 0.12 0.12 85 1003.6
20260503181226 62 206 0.0 0.0 0.00 0.12 0.12 87 1003.4
20260503175725 62 248 0.0 0.0 0.00 0.12 0.12 87 1002.9
20260503174225 62 292 0.0 0.0 0.00 0.12 0.12 88 1002.5
20260503172725 62 270 0.0 0.0 0.00 0.12 0.12 89 1002.9
20260503171225 63 225 0.0 0.0 0.00 0.12 0.12 94 1002.1
20260503131224 63 338 0.0 0.0 0.06 0.12 0.12 96 1001.8